Weather in Stryi

Ukraine / Lviv District     49°15′29″N   23°50′34″E
temp.,
°C
wind,
m/s
gust,
m/s
humid.,
%
clouds,
%
prec.,
mm/h
press.,
hPa
HPBL,
m
22 october, fri
fri2200:00+14wsw51158100 0.0 1009600
03:00+12sw6136281 0.0 1009644
06:00+11sw81566100 0.0 1011665
09:00+11wsw613664 0.0 1012592
12:00+14wsw7105310 0.0 10131506
15:00+14wsw7135354 0.2 10131850
18:00+13wsw815545 0.1 10121261
21:00+11wsw613593 0.1 1014811
23 october, sat
sat2300:00+9w511675 0.0 1015544
03:00+7w49705 0.0 1017296
06:00+7w613605 0.0 1018816
09:00+6w612702 0.0 1020929
12:00+9wnw710465 0.0 10211497
15:00+11wnw71039100 0.0 10212293
18:00+8wnw61055100 0.0 1023918
21:00+6w61160100 0.0 1024801
24 october, sun
sun2400:00+5w5117416 0.0 1026404
03:00+4w5107961 0.0 1028492
06:00+4wnw5108319 0.1 1029706
09:00+2wnw49825 0.2 1031589
12:00+6nw56568 0.0 10321111
15:00+8nw564760 0.0 10321504
18:00+5nnw22605 0.0 103327
21:00+2wsw22705 0.0 103410
25 october, mon
mon2500:00+2sw2273100 0.0 103410
03:00+1s117686 0.0 103410
06:000sse227823 0.0 103311
09:00+1sse247189 0.0 103381
12:00+8se45445 0.0 1031498
15:00+11se44365 0.0 1029687
18:00+7ese37505 0.0 1029116
21:00+4se34600 0.0 102956
26 october, tue
tue2600:00+3sse12645 0.0 102816
03:00+3s116020 0.0 102811
06:00+2s115883 0.0 102710
09:00+3ssw005485 0.0 102710
12:00+9ne104088 0.0 1026262
15:00+11ne2136100 0.0 1025436
18:00+8ese1148100 0.0 102410
21:00+6w1151100 0.0 102510